Kankakee, IL

9:59 PM CDT on August 24, 2019 (GMT -0500)
Greater Kankakee

Weather History for KIKK - July, 2019

Change the Weather History Date:

Sunday, July 21, 2019

  Actual Average Record
Temperature  
Mean Temperature 76 °F -  
Max Temperature 85 °F 86 °F 101 °F (1980)
Min Temperature 68 °F 65 °F 53 °F (2007)
Cooling Degree Days 11    
Growing Degree Days 26 (Base 50)    
Moisture  
Dew Point 70 °F    
Average Humidity 85    
Maximum Humidity 98    
Minimum Humidity 68    
Precipitation  
Precipitation 1.01 in - - ()
Sea Level Pressure  
Sea Level Pressure 29.93 in    
Wind  
Wind Speed 6 mph (NE)    
Max Wind Speed 24 mph    
Max Gust Speed 30 mph    
Visibility 10 miles    
Events Thunderstorm    
Averages and records for this station are not official NWS values.
T = Trace of Precipitation, MM = Missing Value Source: NWS Daily Summary

Daily Weather History Graph

Daily Weather History Graph

Search for Another Location

Airport or City:

Astronomy

Jul. 21, 2019 Rise Set
Actual Time 5:36 AM CDT 8:18 PM CDT
Civil Twilight 5:04 AM CDT 8:50 PM CDT
Nautical Twilight 4:24 AM CDT 9:30 PM CDT
Astronomical Twilight 3:38 AM CDT 10:15 PM CDT
Moon 11:10 PM CDT (7/21) 9:58 AM CDT (7/21)
Length of Visible Light 15h 45m
Length of Day
14h 41m
Waning Gibbous, 80% of the Moon is Illuminated
Jul 21
Waning Gibbous
Jul 24
Last Quarter
Jul 31
New
Aug 7
First Quarter
Aug 15
Full

Hourly Weather History & Observations

Time (CDT) Temp. Heat Index Dew Point Humidity Pressure Visibility Wind Dir Wind Speed Gust Speed Precip Events Conditions
12:15 AM 79.0 °F - 73.9 °F 84% 29.90 in 10.0 mi SW 4.6 mph - N/A   Clear
12:35 AM 79.0 °F - 73.9 °F 84% 29.90 in 10.0 mi SW 4.6 mph - N/A   Clear
12:55 AM 79.0 °F - 73.9 °F 84% 29.89 in 10.0 mi SSW 3.5 mph - N/A   Clear
1:15 AM 79.0 °F - 73.8 °F 84% 29.89 in 10.0 mi SSW 4.6 mph - N/A   Clear
1:35 AM 78.6 °F - 73.6 °F 84% 29.89 in 10.0 mi SW 4.6 mph - N/A   Clear
1:55 AM 78.3 °F - 73.4 °F 85% 29.89 in 10.0 mi Calm Calm - N/A   Clear
2:15 AM 77.4 °F - 73.4 °F 88% 29.89 in 10.0 mi Calm Calm - N/A   Clear
2:35 AM 77.4 °F - 73.4 °F 88% 29.89 in 10.0 mi Calm Calm - N/A   Clear
2:55 AM 77.5 °F - 73.4 °F 87% 29.89 in 10.0 mi Calm Calm - N/A   Clear
3:15 AM 77.2 °F - 73.4 °F 88% 29.88 in 10.0 mi Calm Calm - N/A   Scattered Clouds
3:35 AM 77.2 °F - 73.4 °F 88% 29.89 in 10.0 mi Calm Calm - N/A   Scattered Clouds
3:55 AM 77.5 °F - 73.4 °F 87% 29.89 in 10.0 mi Calm Calm - N/A   Mostly Cloudy
4:15 AM 77.0 °F - 73.4 °F 89% 29.88 in 10.0 mi Calm Calm - N/A   Mostly Cloudy
4:35 AM 76.1 °F - 74.3 °F 94% 29.89 in 10.0 mi North 6.9 mph - N/A   Mostly Cloudy
4:55 AM 76.6 °F - 74.3 °F 92% 29.89 in 10.0 mi Calm Calm - N/A   Mostly Cloudy
5:15 AM 76.3 °F - 74.3 °F 94% 29.90 in 10.0 mi Calm Calm - N/A   Overcast
5:35 AM 74.5 °F - 72.9 °F 95% 29.91 in 10.0 mi NNE 8.1 mph - N/A   Mostly Cloudy
5:55 AM 72.9 °F - 71.1 °F 94% 29.92 in 10.0 mi NE 11.5 mph - N/A   Mostly Cloudy
6:15 AM 72.5 °F - 70.9 °F 95% 29.93 in 10.0 mi NE 9.2 mph - N/A   Scattered Clouds
6:35 AM 72.5 °F - 71.2 °F 96% 29.94 in 10.0 mi NE 9.2 mph - N/A   Mostly Cloudy
6:55 AM 72.5 °F - 71.8 °F 98% 29.93 in 10.0 mi ENE 12.7 mph - N/A   Overcast
7:15 AM 73.6 °F - 72.5 °F 96% 29.92 in 4.0 mi ENE 11.5 mph - N/A   Overcast
7:35 AM 74.7 °F - 72.3 °F 92% 29.92 in 10.0 mi East 9.2 mph - N/A   Overcast
7:55 AM 75.4 °F - 72.5 °F 91% 29.92 in 10.0 mi East 11.5 mph - N/A   Scattered Clouds
8:15 AM 75.9 °F - 72.0 °F 87% 29.93 in 10.0 mi East 11.5 mph - N/A   Clear
8:35 AM 76.5 °F - 71.8 °F 85% 29.93 in 10.0 mi East 10.4 mph - N/A   Clear
8:55 AM 77.2 °F - 72.1 °F 84% 29.92 in 10.0 mi ESE 10.4 mph - N/A   Clear
9:15 AM 77.9 °F - 72.5 °F 83% 29.93 in 10.0 mi ESE 10.4 mph - N/A   Clear
9:35 AM 79.0 °F - 73.4 °F 83% 29.94 in 10.0 mi East 5.8 mph - N/A   Clear
9:55 AM 80.1 °F 84.6 °F 74.1 °F 82% 29.93 in 10.0 mi ESE 10.4 mph - N/A   Clear
10:15 AM 81.3 °F 87.0 °F 74.1 °F 79% 29.92 in 10.0 mi ESE 10.4 mph - N/A   Clear
10:35 AM 83.1 °F 90.4 °F 75.0 °F 76% 29.93 in 10.0 mi SE 9.2 mph - N/A   Clear
10:55 AM 83.1 °F 90.4 °F 74.7 °F 76% 29.93 in 10.0 mi SE 5.8 mph - N/A   Scattered Clouds
11:15 AM 83.3 °F 91.1 °F 75.4 °F 77% 29.93 in 10.0 mi SSE 5.8 mph - N/A   Scattered Clouds
11:35 AM 84.2 °F 92.6 °F 75.6 °F 75% 29.92 in 10.0 mi SSE 5.8 mph - N/A Thunderstorm Mostly Cloudy
11:55 AM 84.4 °F 93.9 °F 76.3 °F 77% 29.92 in 10.0 mi SSW 6.9 mph - N/A   Mostly Cloudy
12:15 PM 84.9 °F 94.9 °F 76.5 °F 76% 29.91 in 10.0 mi South 4.6 mph - N/A   Overcast
12:35 PM 83.3 °F 91.8 °F 76.3 °F 79% 29.89 in 10.0 mi SSE 5.8 mph - N/A Thunderstorm Overcast
12:55 PM 83.3 °F 91.8 °F 76.1 °F 79% 29.89 in 10.0 mi Calm Calm - N/A Thunderstorm Overcast
1:15 PM 73.9 °F - 69.4 °F 86% 29.89 in 4.0 mi NNW 24.2 mph 29.9 mph 0.08 in Thunderstorm Overcast
1:35 PM 70.7 °F - 69.8 °F 97% 29.95 in 1.0 mi NW 10.4 mph 26.5 mph 0.67 in Thunderstorm Thunderstorm
1:55 PM 70.5 °F - 69.8 °F 98% 29.95 in 3.0 mi North 10.4 mph - 0.97 in Thunderstorm Thunderstorm
2:15 PM 70.7 °F - 70.0 °F 98% 29.93 in 10.0 mi North 11.5 mph - 0.04 in Thunderstorm Thunderstorm
2:35 PM 71.6 °F - 70.9 °F 98% 29.91 in 10.0 mi NE 10.4 mph - 0.04 in Thunderstorm Overcast
2:55 PM 71.4 °F - 70.7 °F 98% 29.91 in 10.0 mi NNE 13.8 mph - 0.04 in Thunderstorm Scattered Clouds
3:15 PM 71.6 °F - 70.9 °F 98% 29.92 in 10.0 mi North 5.8 mph - N/A   Scattered Clouds
3:35 PM 72.5 °F - 71.8 °F 98% 29.94 in 10.0 mi NE 10.4 mph - N/A   Scattered Clouds
3:55 PM 73.0 °F - 72.3 °F 98% 29.94 in 10.0 mi NE 8.1 mph - N/A   Overcast
4:15 PM 73.4 °F - 72.5 °F 97% 29.93 in 10.0 mi NNE 9.2 mph - N/A   Overcast
4:35 PM 76.1 °F - 71.1 °F 84% 29.94 in 10.0 mi NNE 11.5 mph - N/A   Overcast
4:55 PM 74.5 °F - 70.3 °F 87% 29.94 in 10.0 mi NNE 13.8 mph - N/A   Overcast
5:15 PM 73.4 °F - 69.8 °F 88% 29.95 in 10.0 mi NNE 12.7 mph - N/A   Overcast
5:35 PM 73.4 °F - 68.9 °F 86% 29.94 in 10.0 mi NNE 12.7 mph 17.3 mph N/A   Overcast
5:55 PM 73.6 °F - 68.7 °F 85% 29.95 in 10.0 mi NNE 12.7 mph - N/A   Overcast
6:15 PM 73.8 °F - 68.5 °F 84% 29.95 in 10.0 mi NNE 10.4 mph - N/A   Overcast
6:55 PM 73.0 °F - 65.7 °F 78% 29.96 in 10.0 mi North 10.4 mph - N/A   Overcast
7:15 PM 72.9 °F - 64.0 °F 74% 29.97 in 10.0 mi North 9.2 mph - N/A   Overcast
7:35 PM 72.1 °F - 62.8 °F 72% 29.97 in 10.0 mi NNE 10.4 mph - N/A   Mostly Cloudy
7:55 PM 71.1 °F - 63.0 °F 75% 29.97 in 10.0 mi NNE 4.6 mph - N/A   Scattered Clouds
8:15 PM 70.9 °F - 63.7 °F 78% 29.98 in 10.0 mi North 3.5 mph - N/A   Mostly Cloudy
8:35 PM 70.9 °F - 63.5 °F 77% 29.97 in 10.0 mi NE 5.8 mph - N/A   Mostly Cloudy
8:55 PM 70.9 °F - 63.1 °F 76% 29.97 in 10.0 mi NNE 5.8 mph - N/A   Scattered Clouds
9:15 PM 70.5 °F - 63.0 °F 77% 29.97 in 10.0 mi North 5.8 mph - N/A   Clear
9:35 PM 70.3 °F - 61.7 °F 74% 29.97 in 10.0 mi North 8.1 mph - N/A   Clear
9:55 PM 69.8 °F - 60.8 °F 73% 29.97 in 10.0 mi NNE 5.8 mph - N/A   Clear
10:15 PM 68.9 °F - 61.2 °F 76% 29.97 in 10.0 mi NNE 4.6 mph - N/A   Clear
10:35 PM 68.9 °F - 60.8 °F 75% 29.98 in 10.0 mi North 4.6 mph - N/A   Clear
10:55 PM 68.9 °F - 60.6 °F 75% 29.98 in 10.0 mi Calm Calm - N/A   Clear
11:15 PM 69.1 °F - 60.1 °F 73% 29.99 in 10.0 mi North 4.6 mph - N/A   Mostly Cloudy
11:35 PM 70.0 °F - 59.2 °F 68% 29.97 in 10.0 mi North 6.9 mph - N/A   Overcast
11:55 PM 69.4 °F - 59.2 °F 70% 29.97 in 10.0 mi North 8.1 mph - N/A   Overcast